Weather History for Valentine, NE

Change the Weather History Date:

Saturday, March 1, 2014

  Actual Average Record
Temperature  
Mean Temperature 0 °F 31 °F  
Max Temperature 9 °F 44 °F 74 °F (1992)
Min Temperature -10 °F 18 °F -29 °F (1980)
Degree Days  
Heating Degree Days 65 34  
Month to date heating degree days 65 34  
Since 1 July heating degree days 5543 5270  
Cooling Degree Days 0 0  
Month to date cooling degree days 0 0  
Year to date cooling degree days 0 0  
Moisture  
Dew Point -7 °F    
Average Humidity 71    
Maximum Humidity 83    
Minimum Humidity 58    
Precipitation  
Precipitation 0.31 in 0.02 in 0.38 in (1953)
Month to date precipitation 0.31 0.02  
Year to date precipitation 0.97 0.76  
Snow  
Snow 3.50 in 0.20 in 3.80 in (1891)
Month to date snowfall 3.5 0.2  
Since 1 July snowfall 30.0 22.3  
Snow Depth 3.00 in    
Sea Level Pressure  
Sea Level Pressure 30.38 in    
Wind  
Wind Speed 11 mph (NNE)    
Max Wind Speed 18 mph    
Max Gust Speed 22 mph    
Visibility 3 miles    
Events Snow    
T = Trace of Precipitation, MM = Missing Value Source: NWS Daily Summary

Daily Weather History Graph

Daily Weather History Graph

Search for Another Location

Airport:

Trip Planner

Search our weather history database for the weather conditions in past years. The results will help you decide how hot, cold, wet, or windy it might be!

Date:

Astronomy

Mar. 01, 2014 Rise Set
Actual Time 7:17 AM CST 6:31 PM CST
Civil Twilight 6:49 AM CST 7:00 PM CST
Nautical Twilight 6:16 AM CST 7:32 PM CST
Astronomical Twilight 5:44 AM CST 8:05 PM CST
Moon 7:11 AM CST (3/1) 7:23 PM CST (3/1)
Length of Visible Light 12h 10m
Length of Day
11h 13m
New Moon, 0% of the Moon is Illuminated
Mar 1
New Moon
Mar 8
First Quarter
Mar 16
Full
Mar 23
Last Quarter
Mar 30
New

Hourly Weather History & Observations

Time (CST) Temp. Windchill Dew Point Humidity Pressure Visibility Wind Dir Wind Speed Gust Speed Precip Events Conditions
12:23 AM 8.6 °F -5.5 °F 1.4 °F 73% 30.17 in 2.5 mi NNE 10.4 mph - 0.00 in Snow Light Snow
12:28 AM 8.6 °F -6.3 °F 1.4 °F 73% 30.17 in 1.0 mi NNE 11.5 mph - 0.00 in Snow Light Snow
12:36 AM 8.6 °F -7.7 °F 1.4 °F 73% 30.17 in 0.8 mi NNE 13.8 mph - 0.01 in Snow Light Snow
12:45 AM 6.8 °F -9.3 °F 1.4 °F 79% 30.16 in 0.5 mi NNE 12.7 mph - 0.01 in Snow Snow
12:52 AM 7.0 °F -8.3 °F 1.9 °F 80% 30.31 in 0.5 mi NNE 11.5 mph - 0.02 in Snow Snow
1:03 AM 6.8 °F -7.8 °F 1.4 °F 79% 30.17 in 0.8 mi NNE 10.4 mph - 0.01 in Snow Light Snow
1:11 AM 6.8 °F -6.9 °F 1.4 °F 79% 30.17 in 1.0 mi NNE 9.2 mph - 0.01 in Snow Light Snow
1:19 AM 6.8 °F -6.9 °F 1.4 °F 79% 30.17 in 2.0 mi NNE 9.2 mph - 0.01 in Snow Light Snow
1:30 AM 6.8 °F -5.9 °F -0.4 °F 72% 30.18 in 2.0 mi NNE 8.1 mph - 0.01 in Snow Light Snow
1:38 AM 6.8 °F -7.8 °F 1.4 °F 79% 30.18 in 1.2 mi NE 10.4 mph - 0.02 in Snow Light Snow
1:52 AM 5.0 °F -10.8 °F -0.0 °F 80% 30.33 in 1.0 mi NE 11.5 mph - 0.02 in Snow Light Snow
2:02 AM 5.0 °F -10.0 °F -0.4 °F 78% 30.18 in 0.8 mi NE 10.4 mph - 0.01 in Snow Light Snow
2:10 AM 5.0 °F -11.6 °F -0.4 °F 78% 30.18 in 0.8 mi NE 12.7 mph - 0.01 in Snow Light Snow
2:52 AM 3.9 °F -13.0 °F -2.0 °F 76% 30.33 in 0.8 mi NE 12.7 mph - 0.04 in Snow Light Snow
2:57 AM 3.2 °F -13.9 °F -2.2 °F 78% 30.18 in 1.0 mi NE 12.7 mph - 0.00 in Snow Light Snow
3:45 AM 3.2 °F -13.1 °F -2.2 °F 78% 30.18 in 0.8 mi NNE 11.5 mph - 0.02 in Snow Light Snow
3:52 AM 3.9 °F -13.0 °F -2.0 °F 76% 30.35 in 0.8 mi NNE 12.7 mph - 0.03 in Snow Light Snow
4:02 AM 3.2 °F -13.1 °F -2.2 °F 78% 30.19 in 1.0 mi NNE 11.5 mph - 0.00 in Snow Light Snow
4:21 AM 3.2 °F -13.9 °F -2.2 °F 78% 30.18 in 1.5 mi NNE 12.7 mph - 0.01 in Snow Light Snow
4:34 AM 3.2 °F -12.2 °F -2.2 °F 78% 30.19 in 0.8 mi NNE 10.4 mph - 0.02 in Snow Light Snow
4:52 AM 3.0 °F -14.8 °F -2.9 °F 76% 30.36 in 0.8 mi NNE 13.8 mph - 0.03 in Snow Light Snow
5:00 AM 3.2 °F -12.2 °F -2.2 °F 78% 30.21 in 1.0 mi NE 10.4 mph - 0.01 in Snow Light Snow
5:13 AM 3.2 °F -11.3 °F -2.2 °F 78% 30.22 in 1.2 mi North 9.2 mph - 0.01 in Snow Light Snow
5:52 AM 1.9 °F -15.5 °F -5.1 °F 72% 30.43 in 1.0 mi North 12.7 mph - 0.03 in Snow Light Snow
6:09 AM 1.4 °F -16.9 °F -5.8 °F 72% 30.26 in 0.8 mi NNE 13.8 mph - 0.02 in Snow Light Snow
6:21 AM 1.4 °F -16.1 °F -5.8 °F 72% 30.25 in 0.8 mi NNE 12.7 mph - 0.02 in Snow Light Snow
6:52 AM -0.0 °F -16.3 °F -6.0 °F 76% 30.44 in 0.8 mi North 10.4 mph - 0.05 in Snow Light Snow
7:13 AM -0.4 °F -16.7 °F -5.8 °F 78% 30.29 in 0.5 mi NNE 10.4 mph - 0.03 in Snow Snow
7:52 AM -0.0 °F -16.3 °F -6.0 °F 76% 30.46 in 0.8 mi NNE 10.4 mph - 0.07 in Snow Light Snow
8:09 AM -0.4 °F -17.6 °F -7.6 °F 72% 30.27 in 0.8 mi NNE 11.5 mph - 0.01 in Snow Light Snow
8:21 AM -0.4 °F -16.7 °F -7.6 °F 72% 30.28 in 1.0 mi NNE 10.4 mph - 0.01 in Snow Light Snow
8:29 AM -0.4 °F -16.7 °F -7.6 °F 72% 30.30 in 1.8 mi NNE 10.4 mph - 0.01 in Snow Light Snow
8:37 AM -0.4 °F -16.7 °F -7.6 °F 72% 30.29 in 2.5 mi NE 10.4 mph - 0.01 in Snow Light Snow
8:52 AM -0.9 °F -19.1 °F -9.0 °F 69% 30.51 in 7.0 mi NNE 12.7 mph - 0.01 in   Overcast
9:52 AM -0.0 °F -18.0 °F -8.0 °F 69% 30.53 in 10.0 mi NE 12.7 mph - 0.00 in   Overcast
10:25 AM -0.4 °F -17.6 °F -9.4 °F 66% 30.36 in 2.0 mi NNE 11.5 mph - 0.00 in Snow Light Snow
10:44 AM -0.4 °F -18.4 °F -9.4 °F 66% 30.34 in 4.0 mi NNE 12.7 mph - 0.00 in   Overcast
10:52 AM -0.9 °F -18.3 °F -9.0 °F 69% 30.54 in 4.0 mi NNE 11.5 mph - 0.00 in   Haze
11:52 AM -0.9 °F -20.6 °F -11.0 °F 62% 30.52 in 3.0 mi NNE 15.0 mph - 0.00 in Snow Light Snow
12:50 PM -0.4 °F -19.2 °F -11.2 °F 60% 30.32 in 2.5 mi NE 13.8 mph - 0.00 in   Overcast
12:52 PM -0.9 °F -19.9 °F -11.0 °F 62% 30.51 in 2.5 mi NE 13.8 mph - 0.00 in   Overcast
12:59 PM -0.4 °F -19.9 °F -11.2 °F 60% 30.33 in 5.0 mi NNE 15.0 mph - 0.00 in   Overcast
1:52 PM -2.0 °F -19.6 °F -11.9 °F 63% 30.55 in 9.0 mi NE 11.5 mph - 0.00 in   Overcast
2:52 PM -2.9 °F -20.8 °F -13.0 °F 62% 30.56 in 8.0 mi NNE 11.5 mph - 0.00 in   Overcast
3:52 PM -4.0 °F -22.1 °F -15.0 °F 59% 30.59 in 10.0 mi NNE 11.5 mph - 0.00 in   Overcast
4:11 PM -4.0 °F -23.0 °F -14.8 °F 60% 30.35 in 1.8 mi NNE 12.7 mph - 0.01 in Snow Light Snow
4:24 PM -2.2 °F -18.9 °F -13.0 °F 60% 30.36 in 2.5 mi NNE 10.4 mph - 0.01 in Snow Light Snow
4:41 PM -4.0 °F -21.2 °F -13.0 °F 65% 30.35 in 3.0 mi NE 10.4 mph - 0.01 in Snow Light Snow
4:52 PM -4.0 °F -22.1 °F -11.9 °F 69% 30.58 in 4.0 mi NE 11.5 mph - 0.01 in Snow Light Snow
5:52 PM -5.1 °F -22.5 °F -14.1 °F 65% 30.62 in 9.0 mi NNE 10.4 mph - 0.00 in   Overcast
6:52 PM -6.0 °F -22.6 °F -14.1 °F 68% 30.64 in 10.0 mi NNE 9.2 mph - N/A   Overcast
7:52 PM -7.1 °F -23.9 °F -16.1 °F 65% 30.67 in 10.0 mi NNE 9.2 mph - N/A   Overcast
8:52 PM -8.0 °F -23.9 °F -16.1 °F 68% 30.70 in 10.0 mi North 8.1 mph - N/A   Overcast
9:52 PM -8.0 °F -21.0 °F -16.1 °F 68% 30.71 in 10.0 mi NNE 5.8 mph - N/A   Overcast
10:52 PM -8.0 °F -23.9 °F -16.1 °F 68% 30.71 in 10.0 mi North 8.1 mph - N/A   Overcast
11:52 PM -9.9 °F -19.2 °F -17.0 °F 71% 30.72 in 10.0 mi NNE 3.5 mph - N/A   Overcast